Location: Beaver Dam Church
(34.5318°N, 88.9828°W)
Time: 00:13:21
(UTC+00:00)

Okean O Rocket - Pass Details

Date: 29 October 2020
Orbit: 623 x 644 km, 98.2° (Epoch: 04 December)

Event Time Altitude Azimuth Distance (km) Brightness Sun altitude
Rises 23:48:07 0° 179° (S) 2,908 5.1 -9.5°
Reaches altitude 10° 23:50:22 10° 184° (S) 2,001 4.4 -10.0°
Maximum altitude 23:54:35 49° 260° (W) 808 2.7 -10.8°
Drops below altitude 10° 23:58:49 10° 336° (NNW) 2,004 4.4 -11.7°
Sets 00:01:05 0° 341° (NNW) 2,912 5.1 -12.2°
